Satellite: NOAA-11 Catalog number: 19531 Epoch time: 12081.74379584 Element set: 0860 Inclination: 098.7338 deg RA of node: 168.7361 deg Eccentricity: 0.0011873 Arg of perigee: 111.6320 deg Mean anomaly: 248.6121 deg Mean motion: 14.14956562 rev/day Decay rate: -2.25e-06 rev/day^2 Epoch rev: 21214 Checksum: 295
Satellite: NOAA-12 Catalog number: 21263 Epoch time: 12081.94046719 Element set: 0357 Inclination: 098.7352 deg RA of node: 103.9902 deg Eccentricity: 0.0014781 Arg of perigee: 094.3816 deg Mean anomaly: 265.9053 deg Mean motion: 14.25484218 rev/day Decay rate: 7.0e-07 rev/day^2 Epoch rev: 08412 Checksum: 296
Satellite: MET-3/5 Catalog number: 21655 Epoch time: 12082.84928366 Element set: 365 Inclination: 082.5576 deg RA of node: 213.1667 deg Eccentricity: 0.0013608 Arg of perigee: 173.0923 deg Mean anomaly: 187.0392 deg Mean motion: 13.17038728 rev/day Decay rate: 5.1e-07 rev/day^2 Epoch rev: 99053 Checksum: 315
Satellite: MET-2/21 Catalog number: 22782 Epoch time: 12082.59926676 Element set: 370 Inclination: 082.5447 deg RA of node: 101.2184 deg Eccentricity: 0.0023605 Arg of perigee: 038.7226 deg Mean anomaly: 321.5615 deg Mean motion: 13.83677389 rev/day Decay rate: 4.2e-07 rev/day^2 Epoch rev: 93719 Checksum: 314
Satellite: OKEAN-4 Catalog number: 23317 Epoch time: 12082.84386432 Element set: 837 Inclination: 082.5383 deg RA of node: 111.9197 deg Eccentricity: 0.0019693 Arg of perigee: 278.2135 deg Mean anomaly: 081.6847 deg Mean motion: 14.83643119 rev/day Decay rate: 7.04e-06 rev/day^2 Epoch rev: 94200 Checksum: 313
Satellite: NOAA-14 Catalog number: 23455 Epoch time: 12081.93385693 Element set: 0842 Inclination: 098.8281 deg RA of node: 166.5230 deg Eccentricity: 0.0008997 Arg of perigee: 203.5603 deg Mean anomaly: 156.5155 deg Mean motion: 14.13884181 rev/day Decay rate: 6.2e-07 rev/day^2 Epoch rev: 88846 Checksum: 327
Satellite: NOAA-15 Catalog number: 25338 Epoch time: 12081.71284845 Element set: 0197 Inclination: 098.6848 deg RA of node: 069.4733 deg Eccentricity: 0.0010765 Arg of perigee: 008.3498 deg Mean anomaly: 351.7839 deg Mean motion: 14.25043341 rev/day Decay rate: 1.89e-06 rev/day^2 Epoch rev: 72039 Checksum: 333
Satellite: RESURS Catalog number: 25394 Epoch time: 12081.93933809 Element set: 0054 Inclination: 098.3154 deg RA of node: 074.7936 deg Eccentricity: 0.0002166 Arg of perigee: 116.3202 deg Mean anomaly: 243.8202 deg Mean motion: 14.24279024 rev/day Decay rate: 1.35e-06 rev/day^2 Epoch rev: 71198 Checksum: 284
Satellite: FENGYUN1 Catalog number: 25730 Epoch time: 12082.89259810 Element set: 564 Inclination: 098.8407 deg RA of node: 043.4086 deg Eccentricity: 0.0017901 Arg of perigee: 256.3864 deg Mean anomaly: 103.5306 deg Mean motion: 14.09332517 rev/day Decay rate: 7.94e-06 rev/day^2 Epoch rev: 66245 Checksum: 306
Satellite: OKEAN-0 Catalog number: 25860 Epoch time: 12081.97238848 Element set: 0579 Inclination: 097.9256 deg RA of node: 046.4541 deg Eccentricity: 0.0001342 Arg of perigee: 101.9261 deg Mean anomaly: 258.2097 deg Mean motion: 14.74124355 rev/day Decay rate: 5.50e-06 rev/day^2 Epoch rev: 68172 Checksum: 308
Satellite: NOAA-16 Catalog number: 26536 Epoch time: 12081.78213103 Element set: 0681 Inclination: 099.1057 deg RA of node: 122.5140 deg Eccentricity: 0.0010123 Arg of perigee: 333.4836 deg Mean anomaly: 026.5793 deg Mean motion: 14.12715670 rev/day Decay rate: 1.0e-08 rev/day^2 Epoch rev: 59269 Checksum: 274
Satellite: NOAA-17 Catalog number: 27453 Epoch time: 12081.70949284 Element set: 0643 Inclination: 098.3458 deg RA of node: 113.1316 deg Eccentricity: 0.0012540 Arg of perigee: 056.5795 deg Mean anomaly: 303.6579 deg Mean motion: 14.24405920 rev/day Decay rate: 3.7e-07 rev/day^2 Epoch rev: 50630 Checksum: 298
Satellite: NOAA-18 Catalog number: 28654 Epoch time: 12081.81403768 Element set: 0120 Inclination: 099.0368 deg RA of node: 039.2188 deg Eccentricity: 0.0014999 Arg of perigee: 043.0189 deg Mean anomaly: 317.2170 deg Mean motion: 14.11619763 rev/day Decay rate: -3.1e-07 rev/day^2 Epoch rev: 35223 Checksum: 300
Satellite: NOAA-19 Catalog number: 33591 Epoch time: 12081.80226645 Element set: 0310 Inclination: 098.8581 deg RA of node: 022.7048 deg Eccentricity: 0.0013251 Arg of perigee: 269.2664 deg Mean anomaly: 090.6988 deg Mean motion: 14.11310772 rev/day Decay rate: 2.46e-06 rev/day^2 Epoch rev: 16068 Checksum: 299
/EX SB KEPS @ AMSAT $ORB12082.M Orbital Elements 12082.MISC
HR AMSAT ORBITAL ELEMENTS FOR MANNED AND MISCELLANEOUS SATELLITES FROM WA5QGD FORT WORTH,TX March 22, 2012 Send SUBSCRIBE KEPS/UNSUBSCRIBE KEPS to majordomo@amsat.org only BID: ORB12082.M TO ALL RADIO AMATEURS BT
Satellite: HUBBLE Catalog number: 20580 Epoch time: 12082.17000933 Element set: 967 Inclination: 028.4714 deg RA of node: 352.8983 deg Eccentricity: 0.0003513 Arg of perigee: 209.0182 deg Mean anomaly: 151.0101 deg Mean motion: 15.02295563 rev/day Decay rate: 1.521e-05 rev/day^2 Epoch rev: 163 Checksum: 245
Satellite: ISS Catalog number: 25544 Epoch time: 12083.07342593 Element set: 231 Inclination: 051.6423 deg RA of node: 193.7400 deg Eccentricity: 0.0016398 Arg of perigee: 185.6950 deg Mean anomaly: 169.9923 deg Mean motion: 15.59465667 rev/day Decay rate: 1.5714e-04 rev/day^2 Epoch rev: 76458 Checksum: 327
Satellite: CO-58 Catalog number: 28895 Epoch time: 12081.60019920 Element set: 0129 Inclination: 097.9286 deg RA of node: 311.6656 deg Eccentricity: 0.0018815 Arg of perigee: 067.9596 deg Mean anomaly: 292.3586 deg Mean motion: 14.60529270 rev/day Decay rate: 5.12e-06 rev/day^2 Epoch rev: 34087 Checksum: 341
Satellite: FALCON Catalog number: 30776 Epoch time: 12081.42065221 Element set: 0314 Inclination: 035.4322 deg RA of node: 092.6491 deg Eccentricity: 0.0002693 Arg of perigee: 317.0139 deg Mean anomaly: 043.0368 deg Mean motion: 15.06883758 rev/day Decay rate: 2.980e-05 rev/day^2 Epoch rev: 27700 Checksum: 277
Satellite: MAST Catalog number: 31126 Epoch time: 12081.97054500 Element set: 0424 Inclination: 097.8791 deg RA of node: 098.1657 deg Eccentricity: 0.0094608 Arg of perigee: 023.0598 deg Mean anomaly: 337.4799 deg Mean motion: 14.54074151 rev/day Decay rate: 5.94e-06 rev/day^2 Epoch rev: 26159 Checksum: 320
Satellite: CAPE1 Catalog number: 31130 Epoch time: 12082.75906214 Element set: 425 Inclination: 097.8840 deg RA of node: 095.3462 deg Eccentricity: 0.0102353 Arg of perigee: 033.4856 deg Mean anomaly: 327.2750 deg Mean motion: 14.52822047 rev/day Decay rate: 4.77e-06 rev/day^2 Epoch rev: 26122 Checksum: 276
Satellite: COMPASS Catalog number: 32787 Epoch time: 12081.33699243 Element set: 0256 Inclination: 097.8094 deg RA of node: 144.5993 deg Eccentricity: 0.0014869 Arg of perigee: 353.0446 deg Mean anomaly: 007.0559 deg Mean motion: 14.83650445 rev/day Decay rate: 1.901e-05 rev/day^2 Epoch rev: 21078 Checksum: 319
Satellite: AAUSAT2 Catalog number: 32788 Epoch time: 12081.86427899 Element set: 246 Inclination: 097.8136 deg RA of node: 145.4528 deg Eccentricity: 0.0014266 Arg of perigee: 352.8926 deg Mean anomaly: 007.2052 deg Mean motion: 14.83942274 rev/day Decay rate: 1.594e-05 rev/day^2 Epoch rev: 21088 Checksum: 330
Satellite: DO-64 Catalog number: 32789 Epoch time: 12081.72278705 Element set: 0262 Inclination: 097.8209 deg RA of node: 147.0212 deg Eccentricity: 0.0014500 Arg of perigee: 348.6791 deg Mean anomaly: 011.4083 deg Mean motion: 14.85185474 rev/day Decay rate: 2.504e-05 rev/day^2 Epoch rev: 21089 Checksum: 303
Satellite: CO-66 Catalog number: 32791 Epoch time: 12081.15896576 Element set: 0251 Inclination: 097.8107 deg RA of node: 144.2331 deg Eccentricity: 0.0015573 Arg of perigee: 353.1044 deg Mean anomaly: 006.9922 deg Mean motion: 14.83130797 rev/day Decay rate: 1.607e-05 rev/day^2 Epoch rev: 21069 Checksum: 304
Satellite: RS-30 Catalog number: 32953 Epoch time: 12082.84554339 Element set: 631 Inclination: 082.5066 deg RA of node: 348.8334 deg Eccentricity: 0.0019079 Arg of perigee: 132.8867 deg Mean anomaly: 227.3815 deg Mean motion: 12.43021627 rev/day Decay rate: 1.0e-07 rev/day^2 Epoch rev: 17383 Checksum: 300
Satellite: TACSAT-3 Catalog number: 35001 Epoch time: 12082.89401907 Element set: 915 Inclination: 040.4455 deg RA of node: 245.1458 deg Eccentricity: 0.0011313 Arg of perigee: 348.4796 deg Mean anomaly: 011.5773 deg Mean motion: 15.83899414 rev/day Decay rate: 1.79600e-03 rev/day^2 Epoch rev: 16078 Checksum: 307
Satellite: PHARMSAT Catalog number: 35002 Epoch time: 12081.89083550 Element set: 834 Inclination: 040.4678 deg RA of node: 259.5643 deg Eccentricity: 0.0002188 Arg of perigee: 223.2570 deg Mean anomaly: 136.8086 deg Mean motion: 15.69112560 rev/day Decay rate: 5.7514e-04 rev/day^2 Epoch rev: 16054 Checksum: 291
Satellite: METEOR-M Catalog number: 35865 Epoch time: 12082.80506071 Element set: 256 Inclination: 098.6651 deg RA of node: 138.7106 deg Eccentricity: 0.0001906 Arg of perigee: 320.6272 deg Mean anomaly: 039.4759 deg Mean motion: 14.21857785 rev/day Decay rate: -1.6e-07 rev/day^2 Epoch rev: 13032 Checksum: 292
Satellite: RS-38 Catalog number: 35869 Epoch time: 12082.76836354 Element set: 262 Inclination: 098.6611 deg RA of node: 138.6839 deg Eccentricity: 0.0003946 Arg of perigee: 310.4042 deg Mean anomaly: 049.6789 deg Mean motion: 14.22059674 rev/day Decay rate: 1.4e-07 rev/day^2 Epoch rev: 13033 Checksum: 321
Satellite: JUGNU Catalog number: 37839 Epoch time: 12081.61538222 Element set: 0114 Inclination: 019.9623 deg RA of node: 168.7496 deg Eccentricity: 0.0019132 Arg of perigee: 340.3184 deg Mean anomaly: 019.6451 deg Mean motion: 14.12035842 rev/day Decay rate: 6.19e-06 rev/day^2 Epoch rev: 02285 Checksum: 285
